Tracking 29090 objects as of 15-Jul-2024
HD Live streaming from Space Station
objects crossing your sky now

SL-8 DEB *

Track SL-8 DEB * now!
10-day predictions


NORAD ID: 18519
Int'l Code: 1984-019D
Perigee: 677.8 km
Apogee: 689.9 km
Inclination: 74.0 °
Period: 98.3 minutes
Semi major axis: 7054 km
RCS: 0.0063 m2 (small)
Launch date: February 21, 1984
Source: Commonwealth of Independent States (former USSR) (CIS)
Launch site: PLESETSK MISSILE AND SPACE COMPLEX (PKMTR)

Note: This is SATELLITE DEBRIS
Your satellite tracking list
Your tracking list is empty




NASA's NSSDC Master Catalog

Two Line Element Set (TLE):
1 18519U 84019D   24196.85650204  .00004150  00000-0  77739-3 0  9994
2 18519  74.0431 223.0341 0008520  57.1903 303.0085 14.65113395958379
Source of the keplerian elements: AFSPC